Location: Dvur Kralove nad Labem
(50.4330°N, 15.8170°E)
Time: 21:40:15
(UTC+02:00)

ISS - Pass Details

Date: 27 May 2022
Orbit: 414 x 420 km, 51.6° (Epoch: 30 June)

Event Time Altitude Azimuth Distance (km) Brightness Sun altitude
Rises 23:12:13 0° 281° (WNW) 2,367 0.6 -14.7°
Reaches altitude 10° 23:15:00 10° 256° (WSW) 1,497 -0.8 -14.9°
Maximum altitude 23:16:55 14° 222° (SW) 1,250 -1.6 -15.0°
Enters shadow 23:17:08 14° 217° (SW) 1,252 -1.6 -15.0°
